When you browse on this site, cookies collect data to enhance your experience and personalize the content and advertising you see.
Visit our Privacy Policy to learn more. By continuing to use the site, you agree to this use of cookies and data.
  • In Germany
  • List of Countries
  • For 7 days
  • Water Temperature
  • Weather Map
  • Weather Widgets
  • user-avatar
    Login

    Hourly Weather Fier

    Today, 15 September, Sunday

    Time Temperature Precipitation Wind Pressure Humidity
    00:00 +23°C° 0 mm 2 mps 765 mmHg 54%
    01:00 +23°C° 0 mm 2 mps 765 mmHg 49%
    02:00 +23°C° 0 mm 2 mps 765 mmHg 48%
    03:00 +22°C° 0 mm 3 mps 765 mmHg 46%
    04:00 +21°C° 0 mm 3 mps 765 mmHg 44%
    05:00 +22°C° 0 mm 3 mps 765 mmHg 44%
    06:00 +24°C° 0 mm 3 mps 766 mmHg 43%
    07:00 +25°C° 0 mm 3 mps 766 mmHg 43%
    08:00 +27°C° 0 mm 2 mps 766 mmHg 38%
    09:00 +30°C° 0 mm 2 mps 766 mmHg 33%
    10:00 +32°C° 0 mm 2 mps 765 mmHg 28%
    11:00 +32°C° 0 mm 2 mps 765 mmHg 28%
    12:00 +34°C° 0 mm 3 mps 765 mmHg 28%
    13:00 +34°C° 0 mm 4 mps 765 mmHg 28%
    14:00 +33°C° 0 mm 4 mps 765 mmHg 32%
    15:00 +32°C° 0 mm 4 mps 764 mmHg 36%
    16:00 +30°C° 0 mm 5 mps 764 mmHg 39%
    17:00 +28°C° 0 mm 4 mps 764 mmHg 47%
    18:00 +27°C° 0 mm 3 mps 764 mmHg 54%
    19:00 +25°C° 0 mm 2 mps 764 mmHg 61%
    20:00 +25°C° 0 mm 2 mps 764 mmHg 63%
    21:00 +24°C° 0 mm 2 mps 764 mmHg 64%
    22:00 +24°C° 0 mm 2 mps 764 mmHg 65%
    23:00 +24°C° 0 mm 2 mps 764 mmHg 65%

    Tomorrow, 16 September, Monday

    Time Temperature Precipitation Wind Pressure Humidity
    00:00 +23°C° 0 mm 2 mps 764 mmHg 66%
    01:00 +23°C° 0 mm 1 mps 764 mmHg 66%
    02:00 +23°C° 0 mm 1 mps 763 mmHg 65%
    03:00 +22°C° 0 mm 1 mps 763 mmHg 64%
    04:00 +22°C° 0 mm 1 mps 763 mmHg 63%
    05:00 +23°C° 0 mm 1 mps 763 mmHg 60%
    06:00 +24°C° 0 mm 1 mps 763 mmHg 56%
    07:00 +25°C° 0 mm 1 mps 763 mmHg 52%
    08:00 +27°C° 0 mm 2 mps 762 mmHg 48%
    09:00 +28°C° 0 mm 2 mps 762 mmHg 44%
    10:00 +30°C° 0 mm 3 mps 762 mmHg 41%
    11:00 +30°C° 0 mm 3 mps 762 mmHg 42%
    12:00 +32°C° 0 mm 4 mps 761 mmHg 42%
    13:00 +32°C° 0 mm 5 mps 761 mmHg 43%
    14:00 +30°C° 0 mm 5 mps 761 mmHg 46%
    15:00 +30°C° 0 mm 4 mps 760 mmHg 50%
    16:00 +29°C° 0 mm 4 mps 760 mmHg 53%
    17:00 +27°C° 0 mm 3 mps 760 mmHg 61%
    18:00 +26°C° 0 mm 2 mps 760 mmHg 69%
    19:00 +24°C° 0 mm 1 mps 761 mmHg 77%
    20:00 +24°C° 0 mm 1 mps 761 mmHg 77%
    21:00 +23°C° 0 mm 1 mps 761 mmHg 78%
    22:00 +23°C° 0 mm 1 mps 761 mmHg 78%
    23:00 +23°C° 0 mm 1 mps 761 mmHg 78%

    Day after tomorrow, 17 September, Tuesday

    Time Temperature Precipitation Wind Pressure Humidity
    00:00 +22°C° 0 mm 1 mps 761 mmHg 78%
    01:00 +22°C° 0 mm 1 mps 760 mmHg 78%
    02:00 +22°C° 0 mm 1 mps 760 mmHg 78%
    03:00 +21°C° 0 mm 1 mps 760 mmHg 78%
    04:00 +21°C° 0 mm 1 mps 760 mmHg 78%
    05:00 +22°C° 0 mm 1 mps 760 mmHg 73%
    06:00 +23°C° 0 mm 1 mps 760 mmHg 69%
    07:00 +24°C° 0 mm 1 mps 760 mmHg 64%
    08:00 +26°C° 0 mm 1 mps 760 mmHg 55%
    09:00 +28°C° 0 mm 1 mps 760 mmHg 47%
    10:00 +30°C° 0 mm 1 mps 760 mmHg 38%
    11:00 +31°C° 0 mm 2 mps 760 mmHg 38%
    12:00 +31°C° 0 mm 3 mps 759 mmHg 38%
    13:00 +33°C° 0 mm 4 mps 759 mmHg 37%
    14:00 +32°C° 0 mm 4 mps 759 mmHg 40%
    15:00 +30°C° 0 mm 3 mps 759 mmHg 42%
    16:00 +29°C° 0 mm 3 mps 758 mmHg 45%
    17:00 +28°C° 0 mm 2 mps 758 mmHg 52%
    18:00 +26°C° 0 mm 1 mps 759 mmHg 60%
    19:00 +22°C° 0 mm 0 mps 759 mmHg 67%
    20:00 +22°C° 0 mm 0 mps 759 mmHg 67%
    21:00 +21°C° 0 mm 0 mps 759 mmHg 67%
    22:00 +21°C° 0 mm 0 mps 759 mmHg 67%
    23:00 +21°C° 0 mm 0 mps 759 mmHg 66%

    18 September, Wednesday

    Time Temperature Precipitation Wind Pressure Humidity
    00:00 +23°C° 0 mm 1 mps 759 mmHg 65%
    01:00 +22°C° 0 mm 1 mps 759 mmHg 64%
    02:00 +22°C° 0 mm 1 mps 759 mmHg 63%
    03:00 +22°C° 0 mm 1 mps 759 mmHg 61%
    04:00 +22°C° 0 mm 1 mps 758 mmHg 60%
    05:00 +23°C° 0 mm 1 mps 759 mmHg 56%
    06:00 +24°C° 0 mm 2 mps 759 mmHg 51%
    07:00 +25°C° 0 mm 2 mps 759 mmHg 47%
    08:00 +27°C° 0 mm 2 mps 759 mmHg 43%
    09:00 +29°C° 0 mm 2 mps 759 mmHg 39%
    10:00 +31°C° 0 mm 2 mps 759 mmHg 35%
    11:00 +31°C° 0 mm 3 mps 759 mmHg 36%
    12:00 +33°C° 0 mm 3 mps 758 mmHg 37%
    13:00 +33°C° 0 mm 4 mps 758 mmHg 39%
    14:00 +33°C° 0 mm 4 mps 758 mmHg 42%
    15:00 +32°C° 0 mm 4 mps 758 mmHg 45%
    16:00 +30°C° 0 mm 4 mps 758 mmHg 49%
    17:00 +29°C° 0 mm 3 mps 758 mmHg 56%
    18:00 +27°C° 0 mm 3 mps 758 mmHg 64%
    19:00 +25°C° 0 mm 2 mps 758 mmHg 71%
    20:00 +25°C° 0 mm 2 mps 758 mmHg 71%
    21:00 +25°C° 0 mm 2 mps 758 mmHg 70%
    22:00 +25°C° 0 mm 2 mps 759 mmHg 70%
    23:00 +24°C° 0 mm 2 mps 758 mmHg 69%

    19 September, Thursday

    Time Temperature Precipitation Wind Pressure Humidity
    00:00 +24°C° 0 mm 2 mps 758 mmHg 69%
    01:00 +24°C° 0 mm 2 mps 758 mmHg 68%
    02:00 +24°C° 0 mm 3 mps 758 mmHg 68%
    03:00 +24°C° 0 mm 3 mps 758 mmHg 68%
    04:00 +24°C° 0 mm 3 mps 757 mmHg 67%
    05:00 +24°C° 0.2 mm 3 mps 757 mmHg 65%
    06:00 +25°C° 0.2 mm 3 mps 757 mmHg 62%
    07:00 +26°C° 0.2 mm 3 mps 757 mmHg 59%
    08:00 +27°C° 0.6 mm 3 mps 757 mmHg 55%
    09:00 +29°C° 0.6 mm 4 mps 757 mmHg 50%
    10:00 +30°C° 0.6 mm 4 mps 758 mmHg 45%
    11:00 +30°C° 0.5 mm 5 mps 757 mmHg 46%
    12:00 +30°C° 0.5 mm 6 mps 757 mmHg 47%
    13:00 +32°C° 0.5 mm 7 mps 757 mmHg 48%
    14:00 +30°C° 0.5 mm 6 mps 757 mmHg 51%
    15:00 +29°C° 0.5 mm 5 mps 757 mmHg 54%
    16:00 +28°C° 0.5 mm 5 mps 757 mmHg 57%
    17:00 +27°C° 1 mm 4 mps 757 mmHg 65%
    18:00 +25°C° 1 mm 3 mps 758 mmHg 74%
    19:00 +24°C° 1 mm 2 mps 758 mmHg 82%
    20:00 +23°C° 0.3 mm 2 mps 758 mmHg 83%
    21:00 +23°C° 0.3 mm 2 mps 759 mmHg 84%
    22:00 +23°C° 0.3 mm 2 mps 759 mmHg 85%
    23:00 +23°C° 0.3 mm 2 mps 759 mmHg 86%

    20 September, Friday

    Time Temperature Precipitation Wind Pressure Humidity
    00:00 +21°C° 0.3 mm 3 mps 759 mmHg 86%
    01:00 +21°C° 0.3 mm 3 mps 759 mmHg 87%
    02:00 +21°C° 0.5 mm 3 mps 759 mmHg 85%
    03:00 +21°C° 0.5 mm 3 mps 759 mmHg 84%
    04:00 +20°C° 0.5 mm 3 mps 758 mmHg 82%
    05:00 +20°C° 0.1 mm 3 mps 758 mmHg 80%
    06:00 +20°C° 0.1 mm 4 mps 759 mmHg 79%
    07:00 +20°C° 0.1 mm 5 mps 759 mmHg 78%
    08:00 +20°C° 0.1 mm 4 mps 759 mmHg 79%
    09:00 +19°C° 0.1 mm 3 mps 760 mmHg 80%
    10:00 +19°C° 0.1 mm 3 mps 761 mmHg 81%
    11:00 +19°C° 0 mm 3 mps 761 mmHg 79%
    12:00 +19°C° 0 mm 4 mps 761 mmHg 76%
    13:00 +19°C° 0 mm 5 mps 761 mmHg 73%
    14:00 +19°C° 0 mm 5 mps 761 mmHg 69%
    15:00 +19°C° 0 mm 5 mps 761 mmHg 65%
    16:00 +19°C° 0 mm 5 mps 761 mmHg 61%
    17:00 +17°C° 0 mm 5 mps 761 mmHg 62%
    18:00 +16°C° 0 mm 5 mps 762 mmHg 64%
    19:00 +15°C° 0 mm 4 mps 762 mmHg 65%
    20:00 +14°C° 0 mm 5 mps 763 mmHg 63%
    21:00 +14°C° 0 mm 5 mps 763 mmHg 62%
    22:00 +14°C° 0 mm 5 mps 764 mmHg 60%
    23:00 +13°C° 0 mm 5 mps 764 mmHg 59%
    Show more